DELTA 1 DEB, 9976

Orbit data source: Space-Track

DELTA 1 DEB, 9976 is space debris in SSO originally from a launch on Tue, 06 Nov 1973 UTC launched from the Air Force Western Test Range (AFWTR). Debris objects in space refer to the collection of defunct objects orbiting the Earth. Examples of debris include non-operational satellites, rocket bodies, and fragments generated from explosions, collisions, or faulty payload assembly.

Loading next visibility...
Identifier
9976, 1973-086GF
Orbit
SSO
Country
Flag of USUS
Related business
Manufacturer
Unknown
Mission
Spacecraft
Bus & Motor
Unknown
Mass
Unknown
Launch date (UTC)
1973-11-06 (52 years ago)
Launch vehicle
Unknown
Launch site
Air Force Western Test Range (AFWTR)
Object type
Payload
Rocket body
Debris
Shape & HBR
Unknown shape, 0.1 m
Radar Cross Section
Small (<0.1 m²)

Expand to show TLE details & history
Last TLE update: 1 week ago

TLE from 1 week ago
0 DELTA 1 DEB
1 09976U 73086GF  26025.89483977  .00000095  00000-0  11175-2 0  9996
2 09976 102.3752  47.1744 0044094 132.2328 348.3227 12.35440611278678
Epoch: 2026-01-25T21:28Z
TLE epoch observation values (Epoch: 2026-01-25T21:28:34.156Z)
Latitude
57.44754°
Longitude
159.83418°
Altitude
1,501.285 km
Speed
7.134 km/s
True Right ascension
16h 28m 41s
True Declination
57° 18' 22"
Sunlit
Object was in daylight at epoch
Visualization orbit readout
Latitude
Unknown
Longitude
Unknown
Altitude
Unknown
Speed
Unknown
Apparent Right ascension
Unknown
Apparent Declination
Unknown
Sunlit
N/A
Visualization observer readout
Local Sidereal Time
03:19:43
Azimuth
Unknown
Elevation
Unknown
Doppler factor
Unknown
Orbital elements
Apogee altitude
1,558.435 km
Perigee altitude
1,488.752 km
Semi-major axis
7,901.731 km
Eccentricity
0.00441
Inclination
102.3752°
RAAN
47.1744°
Arg. of periapsis
132.2328°
True anomaly
348.21988°
Mean anomaly
348.3227°
Eccentric anomaly
348.27134°
Mean motion
3.09001 °/min
Orbital period
116.5 mins
BSTAR
0.0011175
Loading maneuver chart data...
Computing Atmospheric mass density...
Loading historical data...
Loading historical data...
Loading historical data...
Loading historical data...
Loading historical data...
Loading historical data...
Loading historical data...

Documentation

Showing up to 5 results
|